Year,Month,Day,Hour,Minute,Value (Times are PST for temperature in C)
2012,05,21,00,00,10.40
2012,05,21,00,01,10.40
2012,05,21,00,02,10.40
2012,05,21,00,03,10.40
2012,05,21,00,04,10.40
2012,05,21,00,05,10.40
2012,05,21,00,06,10.40
2012,05,21,00,07,10.30
2012,05,21,00,08,10.30
2012,05,21,00,09,10.30
2012,05,21,00,10,10.30
2012,05,21,00,11,10.30
2012,05,21,00,12,10.30
2012,05,21,00,13,10.30
2012,05,21,00,14,10.30
2012,05,21,00,15,10.30
2012,05,21,00,16,10.30
2012,05,21,00,17,10.30
2012,05,21,00,18,10.30
2012,05,21,00,19,10.30
2012,05,21,00,20,10.30
2012,05,21,00,21,10.30
2012,05,21,00,22,10.30
2012,05,21,00,23,10.30
2012,05,21,00,24,10.30
2012,05,21,00,25,10.30
2012,05,21,00,26,10.30
2012,05,21,00,27,10.30
2012,05,21,00,28,10.30
2012,05,21,00,29,10.40
2012,05,21,00,30,10.40
2012,05,21,00,31,10.40
2012,05,21,00,32,10.40
2012,05,21,00,33,10.40
2012,05,21,00,34,10.40
2012,05,21,00,35,10.40
2012,05,21,00,36,10.40
2012,05,21,00,37,10.40
2012,05,21,00,38,10.40
2012,05,21,00,39,10.40
2012,05,21,00,40,10.40
2012,05,21,00,41,10.40
2012,05,21,00,42,10.30
2012,05,21,00,43,10.30
2012,05,21,00,44,10.30
2012,05,21,00,45,10.40
2012,05,21,00,46,10.40
2012,05,21,00,47,10.40
2012,05,21,00,48,10.40
2012,05,21,00,49,10.40
2012,05,21,00,50,10.40
2012,05,21,00,51,10.40
2012,05,21,00,52,10.40
2012,05,21,00,53,10.40
2012,05,21,00,54,10.40
2012,05,21,00,55,10.40
2012,05,21,00,56,10.40
2012,05,21,00,57,10.40
2012,05,21,00,58,10.40
2012,05,21,00,59,10.40
2012,05,21,01,00,10.40
2012,05,21,01,01,10.40
2012,05,21,01,02,10.40
2012,05,21,01,03,10.50
2012,05,21,01,04,10.60
2012,05,21,01,05,10.60
2012,05,21,01,06,10.60
2012,05,21,01,07,10.60
2012,05,21,01,08,10.60
2012,05,21,01,09,10.60
2012,05,21,01,10,10.60
2012,05,21,01,11,10.60
2012,05,21,01,12,10.60
2012,05,21,01,13,10.60
2012,05,21,01,14,10.60
2012,05,21,01,15,10.60
2012,05,21,01,16,10.60
2012,05,21,01,17,10.60
2012,05,21,01,18,10.60
2012,05,21,01,19,10.60
2012,05,21,01,20,10.60
2012,05,21,01,21,10.60
2012,05,21,01,22,10.60
2012,05,21,01,23,10.60
2012,05,21,01,24,10.60
2012,05,21,01,25,10.60
2012,05,21,01,26,10.60
2012,05,21,01,27,10.60
2012,05,21,01,28,10.60
2012,05,21,01,29,10.60
2012,05,21,01,30,10.60
2012,05,21,01,31,10.50
2012,05,21,01,32,10.40
2012,05,21,01,33,10.40
2012,05,21,01,34,10.40
2012,05,21,01,35,10.40
2012,05,21,01,36,10.40
2012,05,21,01,37,10.40
2012,05,21,01,38,10.40
2012,05,21,01,39,10.40
2012,05,21,01,40,10.40
2012,05,21,01,41,10.40
2012,05,21,01,42,10.40
2012,05,21,01,43,10.40
2012,05,21,01,44,10.40
2012,05,21,01,45,10.50
2012,05,21,01,46,10.60
2012,05,21,01,47,10.60
2012,05,21,01,48,10.60
2012,05,21,01,49,10.60
2012,05,21,01,50,10.60
2012,05,21,01,51,10.60
2012,05,21,01,52,10.60
2012,05,21,01,53,10.60
2012,05,21,01,54,10.60
2012,05,21,01,55,10.60
2012,05,21,01,56,10.60
2012,05,21,01,57,10.60
2012,05,21,01,58,10.60
2012,05,21,01,59,10.60
2012,05,21,02,00,10.70
2012,05,21,02,01,10.70
2012,05,21,02,02,10.80
2012,05,21,02,03,10.80
2012,05,21,02,04,10.80
2012,05,21,02,05,10.80
2012,05,21,02,06,10.80
2012,05,21,02,07,10.80
2012,05,21,02,08,10.80
2012,05,21,02,09,10.70
2012,05,21,02,10,10.70
2012,05,21,02,11,10.70
2012,05,21,02,12,10.70
2012,05,21,02,13,10.70
2012,05,21,02,14,10.70
2012,05,21,02,15,10.70
2012,05,21,02,16,10.80
2012,05,21,02,17,10.80
2012,05,21,02,18,10.80
2012,05,21,02,19,10.80
2012,05,21,02,20,10.80
2012,05,21,02,21,10.80
2012,05,21,02,22,10.90
2012,05,21,02,23,10.90
2012,05,21,02,24,10.90
2012,05,21,02,25,10.90
2012,05,21,02,26,10.90
2012,05,21,02,27,10.90
2012,05,21,02,28,10.90
2012,05,21,02,29,11.00
2012,05,21,02,30,11.10
2012,05,21,02,31,11.10
2012,05,21,02,32,11.10
2012,05,21,02,33,11.10
2012,05,21,02,34,11.10
2012,05,21,02,35,11.10
2012,05,21,02,36,11.00
2012,05,21,02,37,10.90
2012,05,21,02,38,10.90
2012,05,21,02,39,10.90
2012,05,21,02,40,10.90
2012,05,21,02,41,10.90
2012,05,21,02,42,10.90
2012,05,21,02,43,10.90
2012,05,21,02,44,10.90
2012,05,21,02,45,10.90
2012,05,21,02,46,10.90
2012,05,21,02,47,10.90
2012,05,21,02,48,10.90
2012,05,21,02,49,10.90
2012,05,21,02,50,10.90
2012,05,21,02,51,10.90
2012,05,21,02,52,10.90
2012,05,21,02,53,10.90
2012,05,21,02,54,10.90
2012,05,21,02,55,10.90
2012,05,21,02,56,10.90
2012,05,21,02,57,10.90
2012,05,21,02,58,10.90
2012,05,21,02,59,10.90
2012,05,21,03,00,10.90
2012,05,21,03,01,10.90
2012,05,21,03,02,10.90
2012,05,21,03,03,10.90
2012,05,21,03,04,10.90
2012,05,21,03,05,10.80
2012,05,21,03,06,10.80
2012,05,21,03,07,10.80
2012,05,21,03,08,10.80
2012,05,21,03,09,10.80
2012,05,21,03,10,10.80
2012,05,21,03,11,10.80
2012,05,21,03,12,10.80
2012,05,21,03,13,10.80
2012,05,21,03,14,10.80
2012,05,21,03,15,10.80
2012,05,21,03,16,10.80
2012,05,21,03,17,10.80
2012,05,21,03,18,10.80
2012,05,21,03,19,10.80
2012,05,21,03,20,10.80
2012,05,21,03,21,10.80
2012,05,21,03,22,10.80
2012,05,21,03,23,10.90
2012,05,21,03,24,10.90
2012,05,21,03,25,10.90
2012,05,21,03,26,10.90
2012,05,21,03,27,10.90
2012,05,21,03,28,10.90
2012,05,21,03,29,10.90
2012,05,21,03,30,10.90
2012,05,21,03,31,10.90
2012,05,21,03,32,11.00
2012,05,21,03,33,11.10
2012,05,21,03,34,11.10
2012,05,21,03,35,11.10
2012,05,21,03,36,11.10
2012,05,21,03,37,11.10
2012,05,21,03,38,11.10
2012,05,21,03,39,11.10
2012,05,21,03,40,11.10
2012,05,21,03,41,11.10
2012,05,21,03,42,11.10
2012,05,21,03,43,11.10
2012,05,21,03,44,11.10
2012,05,21,03,45,11.10
2012,05,21,03,46,11.10
2012,05,21,03,47,11.10
2012,05,21,03,48,11.10
2012,05,21,03,49,11.10
2012,05,21,03,50,11.10
2012,05,21,03,51,11.10
2012,05,21,03,52,11.10
2012,05,21,03,53,11.10
2012,05,21,03,54,11.10
2012,05,21,03,55,11.10
2012,05,21,03,56,11.10
2012,05,21,03,57,11.10
2012,05,21,03,58,11.10
2012,05,21,03,59,11.10
2012,05,21,04,00,11.00
2012,05,21,04,01,10.90
2012,05,21,04,02,10.90
2012,05,21,04,03,10.90
2012,05,21,04,04,10.90
2012,05,21,04,05,10.90
2012,05,21,04,06,10.90
2012,05,21,04,07,10.90
2012,05,21,04,08,10.90
2012,05,21,04,09,10.90
2012,05,21,04,10,10.90
2012,05,21,04,11,10.90
2012,05,21,04,12,11.00
2012,05,21,04,13,11.10
2012,05,21,04,14,11.10
2012,05,21,04,15,11.10
2012,05,21,04,16,11.10
2012,05,21,04,17,11.10
2012,05,21,04,18,11.10
2012,05,21,04,19,11.10
2012,05,21,04,20,11.10
2012,05,21,04,21,11.10
2012,05,21,04,22,11.10
2012,05,21,04,23,11.10
2012,05,21,04,24,11.10
2012,05,21,04,25,11.10
2012,05,21,04,26,11.10
2012,05,21,04,27,11.10
2012,05,21,04,28,11.10
2012,05,21,04,29,11.10
2012,05,21,04,30,11.10
2012,05,21,04,31,11.10
2012,05,21,04,32,11.10
2012,05,21,04,33,11.10
2012,05,21,04,34,11.10
2012,05,21,04,35,11.10
2012,05,21,04,36,11.10
2012,05,21,04,37,11.10
2012,05,21,04,38,11.10
2012,05,21,04,39,11.10
2012,05,21,04,40,11.10
2012,05,21,04,41,11.10
2012,05,21,04,42,11.10
2012,05,21,04,43,11.10
2012,05,21,04,44,11.10
2012,05,21,04,45,11.10
2012,05,21,04,46,11.10
2012,05,21,04,47,11.10
2012,05,21,04,48,11.10
2012,05,21,04,49,11.10
2012,05,21,04,50,11.10
2012,05,21,04,51,11.10
2012,05,21,04,52,11.10
2012,05,21,04,53,11.10
2012,05,21,04,54,11.10
2012,05,21,04,55,11.10
2012,05,21,04,56,11.10
2012,05,21,04,57,11.10
2012,05,21,04,58,11.10
2012,05,21,04,59,11.10
2012,05,21,05,00,11.10
2012,05,21,05,01,11.10
2012,05,21,05,02,11.10
2012,05,21,05,03,11.10
2012,05,21,05,04,11.10
2012,05,21,05,05,11.10
2012,05,21,05,06,11.10
2012,05,21,05,07,11.10
2012,05,21,05,08,11.10
2012,05,21,05,09,11.10
2012,05,21,05,10,11.10
2012,05,21,05,11,11.10
2012,05,21,05,12,11.10
2012,05,21,05,13,11.10
2012,05,21,05,14,11.10
2012,05,21,05,15,11.10
2012,05,21,05,16,11.10
2012,05,21,05,17,11.10
2012,05,21,05,18,11.10
2012,05,21,05,19,11.10
2012,05,21,05,20,11.10
2012,05,21,05,21,11.10
2012,05,21,05,22,11.10
2012,05,21,05,23,11.10
2012,05,21,05,24,11.10
2012,05,21,05,25,11.10
2012,05,21,05,26,11.10
2012,05,21,05,27,11.10
2012,05,21,05,28,11.10
2012,05,21,05,29,11.10
2012,05,21,05,30,11.10
2012,05,21,05,31,11.10
2012,05,21,05,32,11.10
2012,05,21,05,33,11.10
2012,05,21,05,34,11.10
2012,05,21,05,35,11.10
2012,05,21,05,36,11.10
2012,05,21,05,37,11.10
2012,05,21,05,38,11.10
2012,05,21,05,39,11.10
2012,05,21,05,40,11.10
2012,05,21,05,41,11.10
2012,05,21,05,42,11.10
2012,05,21,05,43,11.10
2012,05,21,05,44,11.10
2012,05,21,05,45,11.10
2012,05,21,05,46,11.10
2012,05,21,05,47,11.10
2012,05,21,05,48,11.10
2012,05,21,05,49,11.10
2012,05,21,05,50,11.10
2012,05,21,05,51,11.10
2012,05,21,05,52,11.00
2012,05,21,05,53,10.90
2012,05,21,05,54,10.90
2012,05,21,05,55,10.90
2012,05,21,05,56,10.90
2012,05,21,05,57,11.00
2012,05,21,05,58,11.00
2012,05,21,05,59,10.90
2012,05,21,06,00,10.90
2012,05,21,06,01,10.90
2012,05,21,06,02,10.90
2012,05,21,06,03,10.90
2012,05,21,06,04,10.90
2012,05,21,06,05,10.90
2012,05,21,06,06,10.90
2012,05,21,06,07,10.90
2012,05,21,06,08,10.90
2012,05,21,06,09,10.90
2012,05,21,06,10,10.90
2012,05,21,06,11,10.90
2012,05,21,06,12,11.00
2012,05,21,06,13,11.10
2012,05,21,06,14,11.10
2012,05,21,06,15,11.00
2012,05,21,06,16,11.10
2012,05,21,06,17,11.10
2012,05,21,06,18,11.10
2012,05,21,06,19,11.10
2012,05,21,06,20,11.10
2012,05,21,06,21,11.10
2012,05,21,06,22,11.10
2012,05,21,06,23,11.10
2012,05,21,06,24,11.10
2012,05,21,06,25,11.10
2012,05,21,06,26,11.10
2012,05,21,06,27,11.10
2012,05,21,06,28,11.10
2012,05,21,06,29,11.10
2012,05,21,06,30,11.10
2012,05,21,06,31,11.10
2012,05,21,06,32,11.10
2012,05,21,06,33,11.10
2012,05,21,06,34,11.10
2012,05,21,06,35,11.10
2012,05,21,06,36,11.10
2012,05,21,06,37,11.10
2012,05,21,06,38,11.10
2012,05,21,06,39,11.10
2012,05,21,06,40,11.10
2012,05,21,06,41,11.10
2012,05,21,06,42,11.10
2012,05,21,06,43,11.10
2012,05,21,06,44,11.10
2012,05,21,06,45,11.10
2012,05,21,06,46,11.10
2012,05,21,06,47,11.10
2012,05,21,06,48,11.10
2012,05,21,06,49,11.10
2012,05,21,06,50,11.10
2012,05,21,06,51,11.10
2012,05,21,06,52,11.10
2012,05,21,06,53,11.10
2012,05,21,06,54,11.10
2012,05,21,06,55,11.10
2012,05,21,06,56,11.10
2012,05,21,06,57,11.10
2012,05,21,06,58,11.10
2012,05,21,06,59,11.10
2012,05,21,07,00,11.10
2012,05,21,07,01,11.10
2012,05,21,07,02,11.10
2012,05,21,07,03,11.10
2012,05,21,07,04,11.10
2012,05,21,07,05,11.10
2012,05,21,07,06,11.10
2012,05,21,07,07,11.10
2012,05,21,07,08,11.10
2012,05,21,07,09,11.10
2012,05,21,07,10,11.10
2012,05,21,07,11,11.10
2012,05,21,07,12,11.10
2012,05,21,07,13,11.10
2012,05,21,07,14,11.10
2012,05,21,07,15,11.10
2012,05,21,07,16,11.10
2012,05,21,07,17,11.10
2012,05,21,07,18,11.10
2012,05,21,07,19,11.10
2012,05,21,07,20,11.20
2012,05,21,07,21,11.20
2012,05,21,07,22,11.20
2012,05,21,07,23,11.20
2012,05,21,07,24,11.20
2012,05,21,07,25,11.20
2012,05,21,07,26,11.20
2012,05,21,07,27,11.20
2012,05,21,07,28,11.20
2012,05,21,07,29,11.20
2012,05,21,07,30,11.20
2012,05,21,07,31,11.20
2012,05,21,07,32,11.30
2012,05,21,07,33,11.30
2012,05,21,07,34,11.30
2012,05,21,07,35,11.30
2012,05,21,07,36,11.30
2012,05,21,07,37,11.30
2012,05,21,07,38,11.30
2012,05,21,07,39,11.40
2012,05,21,07,40,11.40
2012,05,21,07,41,11.40
2012,05,21,07,42,11.40
2012,05,21,07,43,11.40
2012,05,21,07,44,11.40
2012,05,21,07,45,11.40
2012,05,21,07,46,11.40
2012,05,21,07,47,11.40
2012,05,21,07,48,11.50
2012,05,21,07,49,11.60
2012,05,21,07,50,11.60
2012,05,21,07,51,11.60
2012,05,21,07,52,11.60
2012,05,21,07,53,11.60
2012,05,21,07,54,11.60
2012,05,21,07,55,11.60
2012,05,21,07,56,11.60
2012,05,21,07,57,11.60
2012,05,21,07,58,11.60
2012,05,21,07,59,11.60
2012,05,21,08,00,11.60
2012,05,21,08,01,11.60
2012,05,21,08,02,11.60
2012,05,21,08,03,11.60
2012,05,21,08,04,11.60
2012,05,21,08,05,11.70
2012,05,21,08,06,11.70
2012,05,21,08,07,11.70
2012,05,21,08,08,11.70
2012,05,21,08,09,11.70
2012,05,21,08,10,11.70
2012,05,21,08,11,11.70
2012,05,21,08,12,11.70
2012,05,21,08,13,11.70
2012,05,21,08,14,11.70
2012,05,21,08,15,11.70
2012,05,21,08,16,11.80
2012,05,21,08,17,11.80
2012,05,21,08,18,11.80
2012,05,21,08,19,11.80
2012,05,21,08,20,11.80
2012,05,21,08,21,11.80
2012,05,21,08,22,11.80
2012,05,21,08,23,11.80
2012,05,21,08,24,11.80
2012,05,21,08,25,11.80
2012,05,21,08,26,11.80
2012,05,21,08,27,11.80
2012,05,21,08,28,11.80
2012,05,21,08,29,11.80
2012,05,21,08,30,11.80
2012,05,21,08,31,11.80
2012,05,21,08,32,11.80
2012,05,21,08,33,11.80
2012,05,21,08,34,11.80
2012,05,21,08,35,11.80
2012,05,21,08,36,11.80
2012,05,21,08,37,11.80
2012,05,21,08,38,11.80
2012,05,21,08,39,11.80
2012,05,21,08,40,11.80
2012,05,21,08,41,11.80
2012,05,21,08,42,11.80
2012,05,21,08,43,11.80
2012,05,21,08,44,11.80
2012,05,21,08,45,11.80
2012,05,21,08,46,11.80
2012,05,21,08,47,11.80
2012,05,21,08,48,11.80
2012,05,21,08,49,11.80
2012,05,21,08,50,11.80
2012,05,21,08,51,11.80
2012,05,21,08,52,11.80
2012,05,21,08,53,11.80
2012,05,21,08,54,11.80
2012,05,21,08,55,11.80
2012,05,21,08,56,11.80
2012,05,21,08,57,11.80
2012,05,21,08,58,11.80
2012,05,21,08,59,11.90
2012,05,21,09,00,11.90
2012,05,21,09,01,11.90
2012,05,21,09,02,11.90
2012,05,21,09,03,11.90
2012,05,21,09,04,11.90
2012,05,21,09,05,11.90
2012,05,21,09,06,11.90
2012,05,21,09,07,11.90
2012,05,21,09,08,11.90
2012,05,21,09,09,11.90
2012,05,21,09,10,11.90
2012,05,21,09,11,11.90
2012,05,21,09,12,11.90
2012,05,21,09,13,11.90
2012,05,21,09,14,11.90
2012,05,21,09,15,11.90
2012,05,21,09,16,11.90
2012,05,21,09,17,11.90
2012,05,21,09,18,11.90
2012,05,21,09,19,11.90
2012,05,21,09,20,11.90
2012,05,21,09,21,11.90
2012,05,21,09,22,11.90
2012,05,21,09,23,11.90
2012,05,21,09,24,11.90
2012,05,21,09,25,11.90
2012,05,21,09,26,11.90
2012,05,21,09,27,12.00
2012,05,21,09,28,12.00
2012,05,21,09,29,12.00
2012,05,21,09,30,12.00
2012,05,21,09,31,12.00
2012,05,21,09,32,12.00
2012,05,21,09,33,12.00
2012,05,21,09,34,12.00
2012,05,21,09,35,12.00
2012,05,21,09,36,12.00
2012,05,21,09,37,12.00
2012,05,21,09,38,12.00
2012,05,21,09,39,12.00
2012,05,21,09,40,12.10
2012,05,21,09,41,12.10
2012,05,21,09,42,12.10
2012,05,21,09,43,12.10
2012,05,21,09,44,12.10
2012,05,21,09,45,12.10
2012,05,21,09,46,12.10
2012,05,21,09,47,12.10
2012,05,21,09,48,12.10
2012,05,21,09,49,12.10
2012,05,21,09,50,12.10
2012,05,21,09,51,12.20
2012,05,21,09,52,12.20
2012,05,21,09,53,12.20
2012,05,21,09,54,12.20
2012,05,21,09,55,12.20
2012,05,21,09,56,12.20
2012,05,21,09,57,12.20
2012,05,21,09,58,12.20
2012,05,21,09,59,12.20
2012,05,21,10,00,12.20
2012,05,21,10,01,12.20
2012,05,21,10,02,12.30
2012,05,21,10,03,12.30
2012,05,21,10,04,12.30
2012,05,21,10,05,12.30
2012,05,21,10,06,12.30
2012,05,21,10,07,12.30
2012,05,21,10,08,12.30
2012,05,21,10,09,12.30
2012,05,21,10,10,12.30
2012,05,21,10,11,12.30
2012,05,21,10,12,12.30
2012,05,21,10,13,12.30
2012,05,21,10,14,12.30
2012,05,21,10,15,12.30
2012,05,21,10,16,12.30
2012,05,21,10,17,12.30
2012,05,21,10,18,12.30
2012,05,21,10,19,12.30
2012,05,21,10,20,12.30
2012,05,21,10,21,12.30
2012,05,21,10,22,12.30
2012,05,21,10,23,12.30
2012,05,21,10,24,12.30
2012,05,21,10,25,12.30
2012,05,21,10,26,12.30
2012,05,21,10,27,12.30
2012,05,21,10,28,12.30
2012,05,21,10,29,12.40
2012,05,21,10,30,12.40
2012,05,21,10,31,12.40
2012,05,21,10,32,12.40
2012,05,21,10,33,12.40
2012,05,21,10,34,12.40
2012,05,21,10,35,12.40
2012,05,21,10,36,12.40
2012,05,21,10,37,12.40
2012,05,21,10,38,12.40
2012,05,21,10,39,12.40
2012,05,21,10,40,12.40
2012,05,21,10,41,12.40
2012,05,21,10,42,12.40
2012,05,21,10,43,12.40
2012,05,21,10,44,12.40
2012,05,21,10,45,12.40
2012,05,21,10,46,12.40
2012,05,21,10,47,12.50
2012,05,21,10,48,12.50
2012,05,21,10,49,12.50
2012,05,21,10,50,12.50
2012,05,21,10,51,12.50
2012,05,21,10,52,12.50
2012,05,21,10,53,12.40
2012,05,21,10,54,12.40
2012,05,21,10,55,12.40
2012,05,21,10,56,12.50
2012,05,21,10,57,12.50
2012,05,21,10,58,12.50
2012,05,21,10,59,12.50
2012,05,21,11,00,12.50
2012,05,21,11,01,12.50
2012,05,21,11,02,12.50
2012,05,21,11,03,12.60
2012,05,21,11,04,12.60
2012,05,21,11,05,12.70
2012,05,21,11,06,12.70
2012,05,21,11,07,12.70
2012,05,21,11,08,12.70
2012,05,21,11,09,12.70
2012,05,21,11,10,12.80
2012,05,21,11,11,12.80
2012,05,21,11,12,12.80
2012,05,21,11,13,12.80
2012,05,21,11,14,12.80
2012,05,21,11,15,12.80
2012,05,21,11,16,12.90
2012,05,21,11,17,12.80
2012,05,21,11,18,12.80
2012,05,21,11,19,12.80
2012,05,21,11,20,12.80
2012,05,21,11,21,12.80
2012,05,21,11,22,12.80
2012,05,21,11,23,12.80
2012,05,21,11,24,12.80
2012,05,21,11,25,12.80
2012,05,21,11,26,12.80
2012,05,21,11,27,12.80
2012,05,21,11,28,12.80
2012,05,21,11,29,12.80
2012,05,21,11,30,12.80
2012,05,21,11,31,12.80
2012,05,21,11,32,12.80
2012,05,21,11,33,12.80
2012,05,21,11,34,12.80
2012,05,21,11,35,12.80
2012,05,21,11,36,12.80
2012,05,21,11,37,12.80
2012,05,21,11,38,12.80
2012,05,21,11,39,12.80
2012,05,21,11,40,12.80
2012,05,21,11,41,12.60
2012,05,21,11,42,12.40
2012,05,21,11,43,12.30
2012,05,21,11,44,12.10
2012,05,21,11,45,12.00
2012,05,21,11,46,12.00
2012,05,21,11,47,11.90
2012,05,21,11,48,12.00
2012,05,21,11,49,12.00
2012,05,21,11,50,12.10
2012,05,21,11,51,12.10
2012,05,21,11,52,12.10
2012,05,21,11,53,12.10
2012,05,21,11,54,12.00
2012,05,21,11,55,12.00
2012,05,21,11,56,12.00
2012,05,21,11,57,12.00
2012,05,21,11,58,12.00
2012,05,21,11,59,12.00
2012,05,21,12,00,12.00
2012,05,21,12,01,11.90
2012,05,21,12,02,11.90
2012,05,21,12,03,11.90
2012,05,21,12,04,11.90
2012,05,21,12,05,11.90
2012,05,21,12,06,11.90
2012,05,21,12,07,11.90
2012,05,21,12,08,12.00
2012,05,21,12,09,12.00
2012,05,21,12,10,12.10
2012,05,21,12,11,12.10
2012,05,21,12,12,12.10
2012,05,21,12,13,12.10
2012,05,21,12,14,12.20
2012,05,21,12,15,12.20
2012,05,21,12,16,12.20
2012,05,21,12,17,12.30
2012,05,21,12,18,12.30
2012,05,21,12,19,12.40
2012,05,21,12,20,12.40
2012,05,21,12,21,12.40
2012,05,21,12,22,12.40
2012,05,21,12,23,12.40
2012,05,21,12,24,12.40
2012,05,21,12,25,12.40
2012,05,21,12,26,12.40
2012,05,21,12,27,12.50
2012,05,21,12,28,12.50
2012,05,21,12,29,12.60
2012,05,21,12,30,12.60
2012,05,21,12,31,12.70
2012,05,21,12,32,12.70
2012,05,21,12,33,12.70
2012,05,21,12,34,12.70
2012,05,21,12,35,12.60
2012,05,21,12,36,12.60
2012,05,21,12,37,12.60
2012,05,21,12,38,12.60
2012,05,21,12,39,12.70
2012,05,21,12,40,12.70
2012,05,21,12,41,12.80
2012,05,21,12,42,12.90
2012,05,21,12,43,12.90
2012,05,21,12,44,12.90
2012,05,21,12,45,13.00
2012,05,21,12,46,13.00
2012,05,21,12,47,13.00
2012,05,21,12,48,13.00
2012,05,21,12,49,13.10
2012,05,21,12,50,13.20
2012,05,21,12,51,13.30
2012,05,21,12,52,13.30
2012,05,21,12,53,13.30
2012,05,21,12,54,13.30
2012,05,21,12,55,13.30
2012,05,21,12,56,13.30
2012,05,21,12,57,13.30
2012,05,21,12,58,13.30
2012,05,21,12,59,13.30
2012,05,21,13,00,13.30
2012,05,21,13,01,13.30
2012,05,21,13,02,13.30
2012,05,21,13,03,13.30
2012,05,21,13,04,13.30
2012,05,21,13,05,13.30
2012,05,21,13,06,13.40
2012,05,21,13,07,13.40
2012,05,21,13,08,13.50
2012,05,21,13,09,13.40
2012,05,21,13,10,13.40
2012,05,21,13,11,13.40
2012,05,21,13,12,13.50
2012,05,21,13,13,13.50
2012,05,21,13,14,13.50
2012,05,21,13,15,13.50
2012,05,21,13,16,13.50
2012,05,21,13,17,13.30
2012,05,21,13,18,13.30
2012,05,21,13,19,13.30
2012,05,21,13,20,13.30
2012,05,21,13,21,13.30
2012,05,21,13,22,13.40
2012,05,21,13,23,13.50
2012,05,21,13,24,13.60
2012,05,21,13,25,13.50
2012,05,21,13,26,13.50
2012,05,21,13,27,13.60
2012,05,21,13,28,13.60
2012,05,21,13,29,13.60
2012,05,21,13,30,13.60
2012,05,21,13,31,13.60
2012,05,21,13,32,13.50
2012,05,21,13,33,13.50
2012,05,21,13,34,13.50
2012,05,21,13,35,13.50
2012,05,21,13,36,13.50
2012,05,21,13,37,13.50
2012,05,21,13,38,13.50
2012,05,21,13,39,13.50
2012,05,21,13,40,13.60
2012,05,21,13,41,13.70
2012,05,21,13,42,13.70
2012,05,21,13,43,13.70
2012,05,21,13,44,13.70
2012,05,21,13,45,13.70
2012,05,21,13,46,13.70
2012,05,21,13,47,13.70
2012,05,21,13,48,13.70
2012,05,21,13,49,13.80
2012,05,21,13,50,13.80
2012,05,21,13,51,13.90
2012,05,21,13,52,13.90
2012,05,21,13,53,13.90
2012,05,21,13,54,13.90
2012,05,21,13,55,13.80
2012,05,21,13,56,13.90
2012,05,21,13,57,14.00
2012,05,21,13,58,14.00
2012,05,21,13,59,14.00
2012,05,21,14,00,14.00
2012,05,21,14,01,13.90
2012,05,21,14,02,13.90
2012,05,21,14,03,13.80
2012,05,21,14,04,13.90
2012,05,21,14,05,13.90
2012,05,21,14,06,14.00
2012,05,21,14,07,14.00
2012,05,21,14,08,14.00
2012,05,21,14,09,14.00
2012,05,21,14,10,14.00
2012,05,21,14,11,14.00
2012,05,21,14,12,14.00
2012,05,21,14,13,14.00
2012,05,21,14,14,14.00
2012,05,21,14,15,14.00
2012,05,21,14,16,14.00
2012,05,21,14,17,14.00
2012,05,21,14,18,14.00
2012,05,21,14,19,14.10
2012,05,21,14,20,14.20
2012,05,21,14,21,14.20
2012,05,21,14,22,14.30
2012,05,21,14,23,14.30
2012,05,21,14,24,14.30
2012,05,21,14,25,14.30
2012,05,21,14,26,14.30
2012,05,21,14,27,14.40
2012,05,21,14,28,14.50
2012,05,21,14,29,14.40
2012,05,21,14,30,14.30
2012,05,21,14,31,14.30
2012,05,21,14,32,14.20
2012,05,21,14,33,14.20
2012,05,21,14,34,14.20
2012,05,21,14,35,14.10
2012,05,21,14,36,14.10
2012,05,21,14,37,14.10
2012,05,21,14,38,14.10
2012,05,21,14,39,14.10
2012,05,21,14,40,14.10
2012,05,21,14,41,14.10
2012,05,21,14,42,14.10
2012,05,21,14,43,14.00
2012,05,21,14,44,13.80
2012,05,21,14,45,13.80
2012,05,21,14,46,13.80
2012,05,21,14,47,13.80
2012,05,21,14,48,13.80
2012,05,21,14,49,13.80
2012,05,21,14,50,13.70
2012,05,21,14,51,13.80
2012,05,21,14,52,13.80
2012,05,21,14,53,13.80
2012,05,21,14,54,13.90
2012,05,21,14,55,13.90
2012,05,21,14,56,14.00
2012,05,21,14,57,14.00
2012,05,21,14,58,14.10
2012,05,21,14,59,14.10
2012,05,21,15,00,14.10
2012,05,21,15,01,14.10
2012,05,21,15,02,14.00
2012,05,21,15,03,14.00
2012,05,21,15,04,13.90
2012,05,21,15,05,13.90
2012,05,21,15,06,13.90
2012,05,21,15,07,13.80
2012,05,21,15,08,13.80
2012,05,21,15,09,13.80
2012,05,21,15,10,13.70
2012,05,21,15,11,13.70
2012,05,21,15,12,13.70
2012,05,21,15,13,13.70
2012,05,21,15,14,13.70
2012,05,21,15,15,13.70
2012,05,21,15,16,13.70
2012,05,21,15,17,13.70
2012,05,21,15,18,13.70
2012,05,21,15,19,13.70
2012,05,21,15,20,13.80
2012,05,21,15,21,13.80
2012,05,21,15,22,13.90
2012,05,21,15,23,13.90
2012,05,21,15,24,13.90
2012,05,21,15,25,13.80
2012,05,21,15,26,13.80
2012,05,21,15,27,13.80
2012,05,21,15,28,13.80
2012,05,21,15,29,13.80
2012,05,21,15,30,13.70
2012,05,21,15,31,13.80
2012,05,21,15,32,13.90
2012,05,21,15,33,14.00
2012,05,21,15,34,14.00
2012,05,21,15,35,14.10
2012,05,21,15,36,14.00
2012,05,21,15,37,14.00
2012,05,21,15,38,13.90
2012,05,21,15,39,13.90
2012,05,21,15,40,13.90
2012,05,21,15,41,13.90
2012,05,21,15,42,13.90
2012,05,21,15,43,14.00
2012,05,21,15,44,14.00
2012,05,21,15,45,14.00
2012,05,21,15,46,14.10
2012,05,21,15,47,14.10
2012,05,21,15,48,14.10
2012,05,21,15,49,14.10
2012,05,21,15,50,14.10
2012,05,21,15,51,14.10
2012,05,21,15,52,14.10
2012,05,21,15,53,14.10
2012,05,21,15,54,14.20
2012,05,21,15,55,14.20
2012,05,21,15,56,14.20
2012,05,21,15,57,14.20
2012,05,21,15,58,14.20
2012,05,21,15,59,14.20
2012,05,21,16,00,14.20
2012,05,21,16,01,14.20
2012,05,21,16,02,14.20
2012,05,21,16,03,14.20
2012,05,21,16,04,14.20
2012,05,21,16,05,14.20
2012,05,21,16,06,14.20
2012,05,21,16,07,14.20
2012,05,21,16,08,14.20
2012,05,21,16,09,14.20
2012,05,21,16,10,14.20
2012,05,21,16,11,14.20
2012,05,21,16,12,14.20
2012,05,21,16,13,14.20
2012,05,21,16,14,14.40
2012,05,21,16,15,14.50
2012,05,21,16,16,14.50
2012,05,21,16,17,14.60
2012,05,21,16,18,14.60
2012,05,21,16,19,14.60
2012,05,21,16,20,14.60
2012,05,21,16,21,14.50
2012,05,21,16,22,14.60
2012,05,21,16,23,14.60
2012,05,21,16,24,14.60
2012,05,21,16,25,14.60
2012,05,21,16,26,14.50
2012,05,21,16,27,14.50
2012,05,21,16,28,14.40
2012,05,21,16,29,14.40
2012,05,21,16,30,14.40
2012,05,21,16,31,14.40
2012,05,21,16,32,14.40
2012,05,21,16,33,14.30
2012,05,21,16,34,14.30
2012,05,21,16,35,14.30
2012,05,21,16,36,14.30
2012,05,21,16,37,14.50
2012,05,21,16,38,14.60
2012,05,21,16,39,14.50
2012,05,21,16,40,14.40
2012,05,21,16,41,14.40
2012,05,21,16,42,14.40
2012,05,21,16,43,14.40
2012,05,21,16,44,14.40
2012,05,21,16,45,14.50
2012,05,21,16,46,14.50
2012,05,21,16,47,14.50
2012,05,21,16,48,14.50
2012,05,21,16,49,14.50
2012,05,21,16,50,14.50
2012,05,21,16,51,14.60
2012,05,21,16,52,14.60
2012,05,21,16,53,14.60
2012,05,21,16,54,14.60
2012,05,21,16,55,14.70
2012,05,21,16,56,14.70
2012,05,21,16,57,14.80
2012,05,21,16,58,14.80
2012,05,21,16,59,14.80
2012,05,21,17,00,14.80
2012,05,21,17,01,14.90
2012,05,21,17,02,14.90
2012,05,21,17,03,14.90
2012,05,21,17,04,15.00
2012,05,21,17,05,14.90
2012,05,21,17,06,14.90
2012,05,21,17,07,14.80
2012,05,21,17,08,14.90
2012,05,21,17,09,14.90
2012,05,21,17,10,14.90
2012,05,21,17,11,15.00
2012,05,21,17,12,15.10
2012,05,21,17,13,15.10
2012,05,21,17,14,15.20
2012,05,21,17,15,15.20
2012,05,21,17,16,15.10
2012,05,21,17,17,15.10
2012,05,21,17,18,15.00
2012,05,21,17,19,15.00